Regional Weather Roundup
Issued by NWS

Home | Current Version | Previous Version | Graphics & Text | Print | Product List | Glossary Off
Versions: 1 2 3 4 5 6 7 8 9 10 11 12 13 14 15 16 17 18 19 20 21 22 23 24 25 26 27 28 29 30 31 32 33 34 35 36 37 38 39 40 41 42 43 44 45 46 47 48 49 50

000
ASUS43 KLSX 291459
RWRMO

WEATHER SUMMARY FOR MISSOURI
NATIONAL WEATHER SERVICE SPRINGFIELD MO
1000 AM CDT MON JUN 29 2015

NOTE: "FAIR" INDICATES FEW OR NO CLOUDS BELOW 12,000 FEET WITH NO
       SIGNIFICANT WEATHER AND/OR OBSTRUCTIONS TO VISIBILITY.
       CURRENT SKY AND/OR WEATHER CONDITIONS ARE NOT AVAILABLE FOR
       CHILLICOTHE AND FARMINGTON.

MOZ001>031-035>038-043-044-053-054-291600-
...NORTHERN AND WESTERN MISSOURI...

CITY           SKY/WX    TMP DP  RH WIND       PRES   REMARKS
KANSAS CTY INT SUNNY     77  65  66 NW6       29.95R
KANSAS C DTWN  SUNNY     80  67  64 NW7       29.93S
LEE`S SUMMIT   SUNNY     78  66  66 VRB5      29.94S
ST JOSEPH      SUNNY     78  64  61 W5        29.94S
CHILLICOTHE      N/A     80  67  64 VRB5      29.92R
KIRKSVILLE     SUNNY     77  66  68 NW7       29.90S

$$
MOZ066>068-077>081-088>096-101>105-291600-
...SOUTHWEST MISSOURI...

CITY           SKY/WX    TMP DP  RH WIND       PRES   REMARKS
SPRINGFIELD    SUNNY     79  65  62 NW6       29.94S
JOPLIN         SUNNY     80  65  59 CALM      29.96S

$$
MOZ032>034-039>042-045>050-055>058-069>072-291600-
...CENTRAL MISSOURI...

CITY           SKY/WX    TMP DP  RH WIND       PRES   REMARKS
COLUMBIA       SUNNY     78  67  68 NW10      29.90R
JEFFERSON CITY SUNNY     76  66  71 NW9       29.89R
ROLLA          SUNNY     76  66  71 NW12      29.89S
SEDALIA        SUNNY     80  67  64 NW8       29.93S
OSAGE BEACH    SUNNY     77  66  69 W6        29.91S

$$
MOZ051-052-059>065-291600-
...EAST CENTRAL MISSOURI...

CITY           SKY/WX    TMP DP  RH WIND       PRES   REMARKS
ST LOUIS INTL  PTSUNNY   75  65  70 NW12      29.87S
SPIRIT OF STL  PTSUNNY   72  68  87 W6        29.86S
ST CHARLES     PTSUNNY   73  67  81 N8        29.86R

$$
MOZ072>076-082>087-097>100-106>115-291600-
...SOUTH CENTRAL AND SOUTHEAST MISSOURI...

CITY           SKY/WX    TMP DP  RH WIND       PRES   REMARKS
CAPE GIRARDEAU SUNNY     79  68  69 VRB5      29.86R
FARMINGTON     MOSUNNY   75  66  73 NW8       29.92R
POPLAR BLUFF   SUNNY     81  68  64 SW8       29.86S
WEST PLAINS    SUNNY     77  68  73 W6        29.93S

$$


USA.gov is the U.S. government's official web portal to all federal, state and local government web resources and services.